Location: Slanting_Bridge
(35.6330°N, 80.9830°W)
Time: 21:10:02
(UTC-04:00)

Hamsat - Visible Passes

Search period start: 31 March 2015 00:00
Search period end: 10 April 2015 00:00
Orbit: 591 x 623 km, 97.6° (Epoch: 31 March)

Date Brightness Start Highest point End Pass type
(mag) Time Alt. Az. Time Alt. Az. Time Alt. Az.
31 Mar ? 05:42:16 10° ENE 05:43:54 12° E 05:45:46 10° ESE visible
01 Apr ? 05:54:30 10° NE 05:57:21 18° E 06:00:20 10° SE visible
02 Apr ? 06:07:13 10° NE 06:10:46 25° E 06:14:21 10° SSE visible
03 Apr ? 06:20:09 10° NNE 06:24:08 35° E 06:28:06 10° SSE visible
04 Apr ? 06:33:13 10° NNE 06:37:27 51° E 06:41:39 10° S visible
07 Apr ? 05:39:40 10° ENE 05:40:55 11° E 05:42:27 10° ESE visible
08 Apr ? 05:51:40 10° NE 05:54:20 16° E 05:57:09 10° SE visible
09 Apr ? 06:04:17 10° NE 06:07:42 23° E 06:11:11 10° SSE visible
